Vertical_Velocity
-1 1 -2 -2 -1 -1 -2 -2 -1 -1 -2 0 0 -1 -1 -1 -1 0 0 -1 1 -1 -1 -0 1 -1 -0 -1 -1 -1 -0 0 -0 -1 -0 -0 -1 -1 -1 -1 -1 -1 -1
0 3 1 -4 -1 -0 -2 -0 -1 -1 -3 -2 0 -1 -1 0 0 -1 0 -1 0 0 -1 -1 0 -2 -1 0 1 1 0 1 1 0 -1 -1 -0 -1 -2 -1 -1 -1 -0
2 -3 -1 -4 -2 -1 -1 -1 -0 -0 -1 -2 -0 1 -0 -0 -1 -1 -1 -0 -1 2 1 -0 1 0 -1 -0 -0 -0 0 0 0 1 0 -0 -1 -1 -1 -1 -1 -1 -0
2 0 0 0 -1 -1 -2 -2 -1 -2 -1 -2 -2 -1 0 -1 1 -1 -2 -1 -1 1 1 0 -0 -0 -2 -1 1 -0 -1 0 1 0 0 0 0 0 -1 -1 -0 -1 -1
1 1 -1 -2 -2 -1 -1 -2 -1 -1 -1 -2 -2 -2 -1 -1 -2 -0 -0 0 -2 -0 1 1 0 -0 -2 -2 -1 0 -0 -1 -0 0 1 -0 -0 0 1 0 -0 0 0
-4 -1 3 0 -0 -3 0 -1 -1 -2 -0 0 0 -0 -0 0 -1 -3 -2 -0 -1 -1 -0 1 1 -0 -1 -3 -1 -0 -0 0 0 0 0 1 2 1 -1 1 1 -1 -1
-4 -1 -2 0 -1 -0 -4 -1 1 -0 -1 -0 -0 -1 -2 -0 -1 -1 -0 -1 0 0 0 -1 -0 0 0 -1 0 0 -1 -0 -0 0 1 1 1 1 2 1 -1 1 -0
2 0 -3 4 -1 -1 0 -1 -1 1 0 -1 0 -0 -0 -1 -1 -2 1 -0 -1 -1 -0 1 0 -0 1 -0 -0 0 -0 -0 -1 -0 -0 -0 1 0 1 0 2 -0 2
-2 -0 -2 -1 1 -1 -0 0 -2 -2 -1 0 -0 -1 0 0 -1 0 1 0 -1 -1 -1 -0 1 0 1 -0 1 -0 0 1 0 0 1 1 2 1 -0 1 0 1 -1
-0 -1 1 4 -2 0 -0 -0 1 -0 -3 -1 1 -1 -0 -0 2 -2 0 1 -0 -1 -0 0 -0 1 -0 -1 0 1 0 -1 0 0 1 0 -1 1 1 0 1 1 1
4 5 0 -1 4 -4 -1 -0 0 -1 -0 -1 0 -1 -0 -1 1 -1 -3 -0 0 -1 0 1 1 -1 -0 0 1 -2 0 2 -0 1 0 0 -2 -1 -1 0 -0 -1 -1
2 -4 3 7 5 1 -3 -1 1 -1 -1 -0 -1 -2 0 0 1 -3 0 -2 1 2 -0 0 0 -0 -0 -2 -1 -1 -2 1 1 -1 0 1 2 1 -1 -0 1 -0 0
2 10 -3 -3 2 2 -1 -3 -2 2 -2 -2 -0 2 -2 2 2 -1 -2 0 -3 -0 -0 -1 -1 -1 0 -0 -1 1 -2 -2 1 1 2 1 2 1 1 -1 1 1 2
3 -1 2 4 -7 4 -2 -2 -5 1 1 0 -1 -1 0 1 2 -0 -2 -1 -2 -3 -1 1 -0 -1 -0 -0 -0 -0 -2 -2 -0 -1 0 -0 -1 1 1 -4 -1 -2 -1
2 -3 1 1 2 4 -3 1 -4 0 -3 -1 -1 -3 -1 -0 4 -1 -3 0 -1 -4 -1 -0 0 -1 0 1 -1 0 1 -1 -0 1 1 1 0 1 -1 1 0 -1 -1
-0 1 0 1 1 4 -2 -1 -2 -1 2 -2 1 0 -1 -2 -0 1 2 1 -2 1 -3 -1 -2 -1 1 1 1 0 -1 -2 -1 -1 1 -1 2 1 -1 -0 -2 -1 -2
2 -5 3 1 1 3 0 -1 0 -3 -1 -5 2 -1 1 -2 -3 -1 3 4 -0 2 -1 1 -0 -1 -1 -1 -1 -0 -0 1 -2 -1 -2 -1 -1 -2 -2 -0 -2 -1 -0
1 0 -2 0 2 1 2 1 -3 -3 1 -2 -2 1 3 -1 -1 0 4 5 -5 2 1 -1 -3 -0 -1 -1 -1 -1 -0 0 1 1 0 1 2 -1 -3 -0 -2 -1 -0
0 3 -0 -1 3 3 -0 0 1 -0 1 -1 -1 1 3 5 2 -1 6 -4 6 -4 3 3 2 -2 0 -0 -0 -0 -1 -1 -0 2 -1 -1 1 -3 -2 -3 -0 -2 -2
3 1 1 -0 1 1 -1 -2 -3 -1 1 -2 -1 -1 1 -1 5 1 -6 18 -7 42 2 -3 2 -0 2 -1 1 0 0 -0 0 -0 0 -0 -1 -1 2 0 -4 -3 -1
-1 -3 2 -0 3 -1 4 1 -1 3 1 -2 -3 -2 -1 4 -0 -1 2 -6 14 8 3 15 2 -1 1 0 -1 1 -0 -0 -1 2 3 -0 1 2 0 -0 0 1 1
7 0 -5 1 1 0 -1 5 0 1 0 -1 -4 -4 -0 -1 2 -0 -4 18 9 11 10 -0 -5 7 -3 1 1 -2 2 -1 0 -3 1 1 4 1 4 5 2 -0 1
2 6 0 1 0 1 1 0 3 -4 -3 2 7 4 0 2 1 -3 -1 -5 1 13 5 0 -3 2 -2 -4 -0 -2 -1 3 -9 0 -2 -1 -2 1 -3 0 2 -1 0
2 4 -2 -0 -2 1 -1 7 0 -0 -1 2 3 -3 -1 -3 -1 1 -1 3 12 19 7 11 0 0 -5 -2 -1 -0 2 -1 -7 4 2 -1 -1 3 4 3 1 0 1
-1 1 6 -1 -4 1 6 1 4 -0 -0 -0 -0 -1 -3 -2 2 -1 -1 -3 -7 -2 1 3 11 5 3 -1 -4 -2 -2 -1 0 2 3 -1 -3 -2 0 -1 0 1 3
-0 -1 -2 3 4 2 1 4 3 0 2 0 5 8 -2 4 3 -2 6 9 3 2 -1 9 6 8 1 -5 -0 -0 3 -3 2 -4 -3 -2 -2 -0 -0 -2 2 -1 1
Height
5852 5855 5859 5860 5861 5862 5864 5866 5868 5870 5871 5873 5875 5877 5877 5877 5878 5878 5878 5878 5880 5880 5880 5880 5880 5879 5879 5878 5877 5877 5877 5877 5877 5877 5877 5877 5877 5876 5875 5874 5873 5872 5871
5846 5850 5854 5856 5857 5859 5860 5862 5865 5867 5869 5870 5872 5874 5875 5876 5876 5877 5877 5877 5878 5879 5880 5880 5880 5880 5879 5879 5878 5877 5877 5877 5877 5877 5877 5877 5877 5876 5875 5874 5873 5872 5871
5842 5844 5846 5850 5853 5856 5858 5859 5861 5864 5866 5868 5869 5871 5872 5874 5875 5876 5876 5876 5877 5879 5879 5880 5880 5879 5879 5878 5878 5878 5877 5877 5877 5877 5876 5876 5876 5875 5875 5874 5873 5872 5871
5840 5840 5842 5844 5847 5850 5854 5856 5858 5861 5863 5865 5866 5868 5869 5871 5873 5874 5875 5875 5875 5877 5878 5879 5879 5879 5878 5878 5878 5877 5877 5876 5876 5876 5876 5876 5876 5875 5874 5873 5872 5871 5871
5836 5837 5838 5840 5842 5844 5848 5852 5855 5857 5860 5862 5864 5865 5867 5869 5870 5872 5873 5874 5874 5875 5876 5877 5877 5877 5878 5877 5877 5877 5876 5876 5876 5876 5876 5875 5875 5875 5874 5872 5871 5870 5869
5831 5833 5834 5836 5837 5840 5843 5847 5850 5853 5856 5858 5860 5862 5864 5866 5867 5869 5871 5873 5872 5873 5874 5875 5875 5876 5876 5876 5877 5876 5876 5876 5875 5875 5874 5875 5874 5874 5873 5872 5870 5869 5868
5826 5828 5829 5831 5833 5835 5837 5841 5845 5848 5851 5854 5856 5858 5860 5862 5864 5865 5868 5870 5871 5871 5872 5873 5873 5874 5874 5875 5875 5875 5875 5875 5874 5874 5873 5873 5873 5872 5871 5870 5870 5869 5868
5820 5822 5824 5828 5829 5831 5832 5834 5838 5843 5846 5849 5852 5854 5856 5858 5859 5862 5865 5866 5868 5869 5870 5871 5871 5872 5873 5873 5873 5874 5873 5873 5873 5872 5872 5872 5870 5870 5870 5869 5868 5867 5866
5813 5816 5818 5820 5825 5827 5829 5830 5831 5835 5839 5843 5847 5849 5852 5854 5855 5857 5861 5863 5864 5865 5867 5868 5869 5869 5870 5870 5871 5871 5871 5871 5871 5871 5870 5870 5869 5868 5868 5867 5866 5865 5864
5806 5808 5812 5815 5819 5822 5824 5826 5828 5829 5831 5836 5840 5843 5847 5849 5851 5853 5856 5859 5860 5861 5863 5864 5865 5866 5867 5867 5867 5868 5868 5868 5868 5868 5868 5868 5867 5866 5865 5865 5863 5862 5862
5797 5801 5805 5808 5811 5815 5818 5821 5823 5825 5827 5828 5831 5836 5841 5844 5847 5849 5850 5853 5855 5857 5858 5859 5860 5861 5863 5863 5864 5864 5865 5865 5865 5865 5865 5865 5865 5864 5863 5861 5860 5859 5858
5791 5793 5796 5799 5803 5807 5812 5815 5818 5819 5822 5824 5826 5829 5833 5837 5841 5843 5845 5848 5851 5853 5854 5855 5856 5857 5857 5859 5860 5861 5861 5862 5862 5862 5862 5861 5861 5860 5860 5859 5857 5855 5853
5781 5786 5790 5794 5796 5800 5805 5809 5811 5813 5816 5819 5820 5822 5825 5829 5834 5837 5839 5843 5844 5847 5848 5850 5851 5852 5853 5854 5855 5856 5857 5857 5858 5858 5857 5858 5857 5856 5855 5854 5853 5852 5849
5771 5776 5781 5786 5789 5793 5796 5800 5805 5807 5810 5813 5815 5817 5820 5822 5827 5830 5832 5836 5839 5840 5842 5844 5846 5846 5847 5848 5849 5851 5852 5853 5853 5853 5853 5853 5853 5852 5851 5850 5849 5848 5847
5756 5763 5768 5774 5780 5784 5787 5792 5796 5800 5803 5806 5808 5812 5815 5816 5819 5823 5825 5829 5832 5833 5836 5838 5838 5839 5841 5842 5843 5845 5846 5847 5848 5848 5848 5847 5846 5847 5846 5845 5844 5843 5842
5743 5749 5755 5761 5769 5774 5776 5782 5788 5793 5796 5799 5802 5804 5807 5809 5811 5815 5818 5821 5824 5826 5829 5831 5831 5833 5835 5836 5837 5839 5840 5841 5841 5842 5843 5843 5841 5841 5840 5839 5837 5837 5835
5732 5736 5744 5750 5757 5763 5768 5771 5777 5783 5787 5792 5795 5796 5798 5801 5803 5806 5810 5813 5813 5817 5820 5823 5825 5827 5828 5829 5831 5833 5833 5834 5834 5835 5834 5836 5836 5835 5833 5833 5831 5830 5828
5718 5725 5729 5737 5745 5751 5757 5762 5768 5772 5778 5783 5785 5788 5790 5793 5795 5798 5801 5800 5799 5805 5810 5813 5816 5820 5821 5822 5824 5825 5826 5828 5829 5829 5829 5829 5829 5828 5825 5825 5824 5822 5821
5703 5712 5718 5724 5732 5738 5745 5752 5757 5761 5765 5770 5774 5779 5782 5785 5787 5789 5792 5792 5790 5796 5802 5804 5806 5810 5814 5815 5816 5817 5818 5820 5821 5821 5822 5821 5820 5820 5819 5815 5815 5814 5812
5689 5694 5704 5711 5719 5725 5731 5738 5746 5750 5755 5759 5764 5768 5772 5775 5779 5780 5781 5781 5779 5781 5793 5796 5799 5802 5803 5805 5807 5809 5812 5813 5813 5814 5814 5815 5814 5813 5812 5810 5805 5804 5804
5672 5676 5686 5695 5704 5712 5719 5727 5733 5739 5745 5749 5753 5755 5758 5761 5766 5768 5770 5771 5773 5777 5784 5785 5786 5792 5794 5796 5799 5801 5803 5804 5805 5806 5806 5805 5804 5804 5803 5802 5799 5795 5794
5658 5662 5671 5680 5688 5696 5704 5714 5720 5727 5733 5737 5740 5743 5747 5750 5756 5759 5760 5764 5768 5773 5773 5775 5778 5781 5783 5786 5790 5791 5793 5795 5796 5796 5796 5796 5795 5793 5790 5789 5790 5788 5787
5642 5651 5659 5666 5674 5684 5692 5700 5708 5716 5723 5728 5731 5735 5739 5741 5743 5748 5754 5758 5760 5764 5764 5764 5767 5769 5772 5775 5778 5780 5782 5783 5783 5786 5784 5783 5783 5782 5778 5778 5779 5779 5779
5628 5636 5644 5653 5662 5673 5682 5691 5698 5706 5712 5717 5721 5723 5726 5730 5732 5737 5743 5749 5750 5752 5752 5754 5757 5759 5760 5765 5766 5767 5770 5772 5774 5774 5774 5773 5771 5770 5769 5769 5770 5771 5771
5611 5622 5632 5642 5655 5666 5675 5682 5689 5697 5702 5706 5710 5712 5713 5716 5720 5725 5731 5737 5739 5742 5744 5745 5750 5748 5750 5756 5759 5761 5762 5764 5763 5763 5765 5765 5762 5761 5762 5761 5760 5760 5760
5601 5613 5626 5639 5650 5657 5666 5675 5683 5688 5692 5697 5700 5703 5706 5708 5713 5717 5723 5728 5732 5734 5735 5737 5740 5743 5744 5749 5752 5754 5755 5756 5755 5754 5751 5752 5752 5749 5751 5752 5752 5753 5752